TimeCDT,TemperatureF,Dew PointF,Humidity,Sea Level PressureIn,VisibilityMPH,Wind Direction,Wind SpeedMPH,Gust SpeedMPH,PrecipitationIn,Events,Conditions,WindDirDegrees,DateUTC
12:15 AM,78.8,75.9,91,30.05,10.0,Calm,Calm,-,N/A,,Clear,0,2013-06-12 05:15:00
12:35 AM,78.8,75.7,90,30.05,10.0,Calm,Calm,-,N/A,,Clear,0,2013-06-12 05:35:00
12:55 AM,78.4,75.7,91,30.05,10.0,Calm,Calm,-,N/A,,Clear,0,2013-06-12 05:55:00
1:15 AM,77.7,75.4,92,30.05,10.0,Calm,Calm,-,N/A,,Clear,0,2013-06-12 06:15:00
1:35 AM,77.9,75.6,92,30.05,10.0,Calm,Calm,-,N/A,,Clear,0,2013-06-12 06:35:00
1:55 AM,78.4,75.7,91,30.05,10.0,Calm,Calm,-,N/A,,Clear,0,2013-06-12 06:55:00
2:15 AM,78.3,75.6,91,30.05,10.0,Calm,Calm,-,N/A,,Clear,0,2013-06-12 07:15:00
2:35 AM,78.1,75.2,91,30.05,10.0,Calm,Calm,-,N/A,,Clear,0,2013-06-12 07:35:00
2:55 AM,78.1,75.2,91,30.05,10.0,Calm,Calm,-,N/A,,Clear,0,2013-06-12 07:55:00
3:15 AM,78.3,75.2,90,30.05,10.0,Calm,Calm,-,N/A,,Scattered Clouds,0,2013-06-12 08:15:00
3:35 AM,78.8,75.4,89,30.05,10.0,Calm,Calm,-,N/A,,Scattered Clouds,0,2013-06-12 08:35:00
3:55 AM,76.5,74.5,94,30.05,7.0,Calm,Calm,-,N/A,,Scattered Clouds,0,2013-06-12 08:55:00
4:15 AM,77.7,75.6,93,30.05,10.0,Calm,Calm,-,N/A,,Scattered Clouds,0,2013-06-12 09:15:00
4:35 AM,78.1,75.2,91,30.05,10.0,Calm,Calm,-,N/A,,Scattered Clouds,0,2013-06-12 09:35:00
4:55 AM,77.5,75.0,92,30.05,10.0,Calm,Calm,-,N/A,,Clear,0,2013-06-12 09:55:00
5:15 AM,76.3,74.3,94,30.05,10.0,Calm,Calm,-,N/A,,Scattered Clouds,0,2013-06-12 10:15:00
5:35 AM,76.1,74.1,94,30.05,7.0,Calm,Calm,-,N/A,,Scattered Clouds,0,2013-06-12 10:35:00
5:55 AM,75.7,73.4,92,30.06,10.0,Calm,Calm,-,N/A,,Clear,0,2013-06-12 10:55:00
6:15 AM,75.6,73.6,94,30.07,7.0,Calm,Calm,-,N/A,,Clear,0,2013-06-12 11:15:00
6:35 AM,77.2,74.7,92,30.07,10.0,Calm,Calm,-,N/A,,Clear,0,2013-06-12 11:35:00
6:55 AM,76.5,74.5,94,30.08,7.0,Calm,Calm,-,N/A,,Scattered Clouds,0,2013-06-12 11:55:00
7:15 AM,76.3,75.0,96,30.08,7.0,Calm,Calm,-,N/A,,Scattered Clouds,0,2013-06-12 12:15:00
7:35 AM,79.5,76.3,90,30.08,10.0,Calm,Calm,-,N/A,,Scattered Clouds,0,2013-06-12 12:35:00
7:55 AM,81.5,76.6,85,30.08,10.0,Calm,Calm,-,N/A,,Clear,0,2013-06-12 12:55:00
8:15 AM,82.8,75.7,79,30.09,10.0,Calm,Calm,-,N/A,,Clear,0,2013-06-12 13:15:00
8:35 AM,83.7,75.7,77,30.10,10.0,Calm,Calm,-,N/A,,Clear,0,2013-06-12 13:35:00
8:55 AM,84.2,75.9,76,30.09,10.0,Calm,Calm,-,N/A,,Scattered Clouds,0,2013-06-12 13:55:00
9:15 AM,84.4,75.7,75,30.09,10.0,Calm,Calm,-,N/A,,Scattered Clouds,0,2013-06-12 14:15:00
9:35 AM,84.0,75.7,76,30.09,10.0,Calm,Calm,-,N/A,,Scattered Clouds,0,2013-06-12 14:35:00
9:55 AM,85.3,74.8,71,30.09,10.0,Calm,Calm,-,N/A,,Clear,0,2013-06-12 14:55:00
10:15 AM,86.0,75.6,71,30.09,10.0,Calm,Calm,-,N/A,,Scattered Clouds,0,2013-06-12 15:15:00
10:35 AM,85.6,75.4,71,30.10,10.0,South,4.6,-,N/A,,Scattered Clouds,170,2013-06-12 15:35:00
10:55 AM,87.3,73.0,62,30.10,10.0,South,6.9,-,N/A,,Scattered Clouds,190,2013-06-12 15:55:00
11:15 AM,87.4,73.6,63,30.10,10.0,SSE,4.6,-,N/A,,Clear,160,2013-06-12 16:15:00
11:35 AM,87.6,74.3,64,30.10,10.0,Calm,Calm,-,N/A,,Clear,0,2013-06-12 16:35:00
11:55 AM,87.8,74.1,64,30.10,10.0,SSE,11.5,-,N/A,,Clear,160,2013-06-12 16:55:00
12:15 PM,87.8,74.1,64,30.10,10.0,SSE,11.5,-,N/A,,Clear,150,2013-06-12 17:15:00
12:35 PM,88.0,74.3,64,30.10,10.0,SSE,5.8,-,N/A,,Clear,160,2013-06-12 17:35:00
12:55 PM,88.9,74.7,63,30.09,10.0,SSE,10.4,16.1,N/A,,Clear,150,2013-06-12 17:55:00
1:15 PM,88.3,73.6,61,30.09,10.0,SSE,10.4,-,N/A,,Scattered Clouds,160,2013-06-12 18:15:00
1:35 PM,88.9,73.9,61,30.08,10.0,SSE,10.4,-,N/A,,Clear,150,2013-06-12 18:35:00
1:55 PM,88.9,74.1,62,30.08,10.0,South,5.8,-,N/A,,Clear,180,2013-06-12 18:55:00
2:15 PM,89.4,73.9,60,30.08,10.0,Calm,Calm,-,N/A,,Clear,0,2013-06-12 19:15:00
2:35 PM,89.1,74.3,62,30.08,10.0,SSE,8.1,-,N/A,,Clear,160,2013-06-12 19:35:00
2:55 PM,89.1,73.9,61,30.07,10.0,SSE,9.2,-,N/A,,Clear,160,2013-06-12 19:55:00
3:15 PM,89.2,74.7,62,30.06,10.0,Calm,Calm,-,N/A,,Clear,0,2013-06-12 20:15:00
3:35 PM,89.2,74.3,61,30.05,10.0,SSE,6.9,-,N/A,,Clear,150,2013-06-12 20:35:00
3:55 PM,89.6,73.9,60,30.05,10.0,Calm,Calm,-,N/A,,Clear,0,2013-06-12 20:55:00
4:15 PM,90.0,74.3,60,30.04,10.0,Calm,Calm,-,N/A,,Clear,0,2013-06-12 21:15:00
4:35 PM,89.6,73.4,59,30.04,10.0,South,4.6,-,N/A,,Clear,190,2013-06-12 21:35:00
4:55 PM,89.1,73.4,60,30.03,10.0,SSE,3.5,-,N/A,,Clear,150,2013-06-12 21:55:00
5:15 PM,89.2,73.9,60,30.03,10.0,Calm,Calm,-,N/A,,Clear,0,2013-06-12 22:15:00
5:35 PM,88.9,75.2,64,30.02,10.0,Calm,Calm,-,N/A,,Clear,0,2013-06-12 22:35:00
5:55 PM,88.2,74.1,63,30.01,10.0,Calm,Calm,-,N/A,,Clear,0,2013-06-12 22:55:00
6:15 PM,88.0,74.5,64,30.00,10.0,Calm,Calm,-,N/A,,Clear,0,2013-06-12 23:15:00
6:35 PM,87.8,75.2,66,30.00,10.0,Calm,Calm,-,N/A,,Clear,0,2013-06-12 23:35:00
6:55 PM,86.9,75.4,68,30.01,10.0,Calm,Calm,-,N/A,,Clear,0,2013-06-12 23:55:00
7:15 PM,85.3,75.7,73,30.01,10.0,South,10.4,-,N/A,,Scattered Clouds,170,2013-06-13 00:15:00
7:35 PM,84.2,75.4,75,30.01,10.0,Calm,Calm,-,N/A,,Scattered Clouds,0,2013-06-13 00:35:00
7:55 PM,83.7,75.6,76,30.01,10.0,Calm,Calm,-,N/A,,Clear,0,2013-06-13 00:55:00
8:15 PM,82.9,75.4,78,30.02,10.0,Calm,Calm,-,N/A,,Clear,0,2013-06-13 01:15:00
8:35 PM,82.4,75.9,81,30.02,10.0,Calm,Calm,-,N/A,,Scattered Clouds,0,2013-06-13 01:35:00
8:55 PM,82.4,75.6,80,30.02,10.0,Calm,Calm,-,N/A,,Scattered Clouds,0,2013-06-13 01:55:00
9:15 PM,82.4,76.1,81,30.03,10.0,Calm,Calm,-,N/A,,Scattered Clouds,0,2013-06-13 02:15:00
9:35 PM,81.9,75.9,82,30.03,10.0,Calm,Calm,-,N/A,,Scattered Clouds,0,2013-06-13 02:35:00
9:55 PM,81.9,75.7,82,30.04,10.0,Calm,Calm,-,N/A,,Clear,0,2013-06-13 02:55:00
10:15 PM,81.7,75.7,82,30.04,10.0,Calm,Calm,-,N/A,,Clear,0,2013-06-13 03:15:00
10:35 PM,81.3,75.9,84,30.04,10.0,Calm,Calm,-,N/A,,Clear,0,2013-06-13 03:35:00
10:55 PM,79.9,75.6,87,30.05,10.0,Calm,Calm,-,N/A,,Clear,0,2013-06-13 03:55:00
11:15 PM,80.6,75.7,85,30.05,10.0,Calm,Calm,-,N/A,,Clear,0,2013-06-13 04:15:00
11:35 PM,78.8,75.4,89,30.05,10.0,Calm,Calm,-,N/A,,Clear,0,2013-06-13 04:35:00
11:55 PM,78.3,75.2,90,30.05,10.0,Calm,Calm,-,N/A,,Clear,0,2013-06-13 04:55:00